Zurück zum Katalog

ARIANE 5 DEB

SYLDA

AktivUNKNOWN
NORAD 28947·DEBRIS·🇫🇷 France

Gestartet Mar 11, 2006 von Guiana Space Centre

Loading…

Nächste Überflüge (nächste 24 Stunden)

TLE

AktuellSource: Space-Track

Epoche: Sep 13, 2026, 23:55 UTC

1 28947U 06007C   26256.99655250  .00763484 -10016-4  29551-2 0  9994
2 28947   4.7234 356.5077 2184238  52.8252 325.2181 11.27232604292505

Verfolge ARIANE 5 DEB in Echtzeit mit AllMySat

Download on the App Store